Data supplied by UK-AIR on 22/3/2017
All Data GMT hour ending 
Status: R =Ratified P=Provisional,P*=As supplied
,,Cwmbran,,,,,,,,,,,,,,,,,,,,,,,
Date,time,"Nitric oxide",status,unit,"Nitrogen dioxide",status,unit,"Nitrogen oxides as nitrogen dioxide",status,unit,"Ozone",status,unit
 
01-01-2016,01:00,8.27771,R,ugm-3,41.27558,R,ugm-3,53.96788,R,ugm-3,5.58796,R,ugm-3
01-01-2016,02:00,11.68440,R,ugm-3,38.75538,R,ugm-3,56.67120,R,ugm-3,2.32832,R,ugm-3
01-01-2016,03:00,10.69747,R,ugm-3,36.23853,R,ugm-3,52.64108,R,ugm-3,1.39699,R,ugm-3
01-01-2016,04:00,8.21409,R,ugm-3,35.67147,R,ugm-3,48.26624,R,ugm-3,5.58796,R,ugm-3
01-01-2016,05:00,1.30561,R,ugm-3,19.82067,R,ugm-3,21.82258,R,ugm-3,14.81807,R,ugm-3
01-01-2016,06:00,1.33711,R,ugm-3,18.79031,R,ugm-3,20.84051,R,ugm-3,14.71829,R,ugm-3
01-01-2016,07:00,1.94205,R,ugm-3,20.86059,R,ugm-3,23.83836,R,ugm-3,15.06754,R,ugm-3
01-01-2016,08:00,1.36891,R,ugm-3,23.41043,R,ugm-3,25.50940,R,ugm-3,17.36259,R,ugm-3
01-01-2016,09:00,1.33711,R,ugm-3,23.21393,R,ugm-3,25.26413,R,ugm-3,20.15657,R,ugm-3
01-01-2016,10:00,1.08266,R,ugm-3,12.24956,R,ugm-3,13.90961,R,ugm-3,34.92475,R,ugm-3
01-01-2016,11:00,1.20988,R,ugm-3,9.59693,R,ugm-3,11.45205,R,ugm-3,44.95314,R,ugm-3
01-01-2016,12:00,1.08266,R,ugm-3,10.38201,R,ugm-3,12.04206,R,ugm-3,48.54540,R,ugm-3
01-01-2016,13:00,0.82790,R,ugm-3,8.70809,R,ugm-3,9.97751,R,ugm-3,53.48476,R,ugm-3
01-01-2016,14:00,0.79640,R,ugm-3,8.70713,R,ugm-3,9.92827,R,ugm-3,53.58455,R,ugm-3
01-01-2016,15:00,0.76428,R,ugm-3,7.82356,R,ugm-3,8.99544,R,ugm-3,54.43272,R,ugm-3
01-01-2016,16:00,0.73217,R,ugm-3,8.01959,R,ugm-3,9.14223,R,ugm-3,57.22670,R,ugm-3
01-01-2016,17:00,0.60463,R,ugm-3,8.60816,R,ugm-3,9.53525,R,ugm-3,55.58025,R,ugm-3
01-01-2016,18:00,0.54071,R,ugm-3,7.33013,R,ugm-3,8.15920,R,ugm-3,58.37423,R,ugm-3
01-01-2016,19:00,0.47709,R,ugm-3,5.51039,R,ugm-3,6.24192,R,ugm-3,64.01208,R,ugm-3
01-01-2016,20:00,0.44529,R,ugm-3,5.11737,R,ugm-3,5.80013,R,ugm-3,63.31358,R,ugm-3
01-01-2016,21:00,0.41348,R,ugm-3,4.47764,R,ugm-3,5.11163,R,ugm-3,65.25939,R,ugm-3
01-01-2016,22:00,0.47709,R,ugm-3,4.28257,R,ugm-3,5.01410,R,ugm-3,61.56735,R,ugm-3
01-01-2016,23:00,0.28626,R,ugm-3,3.64092,R,ugm-3,4.07984,R,ugm-3,58.22455,R,ugm-3
01-01-2016,24:00,0.44529,R,ugm-3,3.24934,R,ugm-3,3.93210,R,ugm-3,56.72777,R,ugm-3
02-01-2016,01:00,0.38167,R,ugm-3,3.15037,R,ugm-3,3.73559,R,ugm-3,54.41609,R,ugm-3
02-01-2016,02:00,0.47709,R,ugm-3,3.29906,R,ugm-3,4.03059,R,ugm-3,54.41609,R,ugm-3
02-01-2016,03:00,0.38167,R,ugm-3,2.31460,R,ugm-3,2.89983,R,ugm-3,57.17681,R,ugm-3
02-01-2016,04:00,0.15903,R,ugm-3,2.60674,R,ugm-3,2.85058,R,ugm-3,57.97509,R,ugm-3
02-01-2016,05:00,0.28626,R,ugm-3,1.77337,R,ugm-3,2.21228,R,ugm-3,60.17036,R,ugm-3
02-01-2016,06:00,0.31806,R,ugm-3,1.57686,R,ugm-3,2.06454,R,ugm-3,63.41337,R,ugm-3
02-01-2016,07:00,0.44529,R,ugm-3,2.41358,R,ugm-3,3.09634,R,ugm-3,64.71057,R,ugm-3
02-01-2016,08:00,0.66824,R,ugm-3,3.35022,R,ugm-3,4.37484,R,ugm-3,66.25724,R,ugm-3
02-01-2016,09:00,0.54102,R,ugm-3,2.85680,R,ugm-3,3.68634,R,ugm-3,69.25079,R,ugm-3
02-01-2016,10:00,0.60463,R,ugm-3,3.34879,R,ugm-3,4.27587,R,ugm-3,66.05767,R,ugm-3
02-01-2016,11:00,0.89151,R,ugm-3,6.84149,R,ugm-3,8.20845,R,ugm-3,62.56520,R,ugm-3
02-01-2016,12:00,0.98724,R,ugm-3,11.11832,R,ugm-3,12.63206,R,ugm-3,51.53895,R,ugm-3
02-01-2016,13:00,0.95543,R,ugm-3,8.95528,R,ugm-3,10.42026,R,ugm-3,53.43487,R,ugm-3
02-01-2016,14:00,1.20988,R,ugm-3,12.15298,R,ugm-3,14.00811,R,ugm-3,50.04218,R,ugm-3
02-01-2016,15:00,1.17808,R,ugm-3,10.18645,R,ugm-3,11.99281,R,ugm-3,45.70153,R,ugm-3
02-01-2016,16:00,0.60494,R,ugm-3,8.41118,R,ugm-3,9.33874,R,ugm-3,51.04003,R,ugm-3
02-01-2016,17:00,5.25332,R,ugm-3,37.01644,R,ugm-3,45.07141,R,ugm-3,31.28260,R,ugm-3
02-01-2016,18:00,2.86505,R,ugm-3,37.48357,R,ugm-3,41.87658,R,ugm-3,9.62925,R,ugm-3
02-01-2016,19:00,0.54071,R,ugm-3,9.34495,R,ugm-3,10.17402,R,ugm-3,42.25895,R,ugm-3
02-01-2016,20:00,0.44529,R,ugm-3,7.08342,R,ugm-3,7.76618,R,ugm-3,49.19401,R,ugm-3
02-01-2016,21:00,0.44529,R,ugm-3,4.96915,R,ugm-3,5.65192,R,ugm-3,52.68648,R,ugm-3
02-01-2016,22:00,0.44529,R,ugm-3,5.26416,R,ugm-3,5.94692,R,ugm-3,47.89680,R,ugm-3
02-01-2016,23:00,0.34987,R,ugm-3,3.19913,R,ugm-3,3.73559,R,ugm-3,53.53465,R,ugm-3
02-01-2016,24:00,0.25445,R,ugm-3,2.03490,R,ugm-3,2.42505,R,ugm-3,65.20950,R,ugm-3
03-01-2016,01:00,0.25445,R,ugm-3,1.42816,R,ugm-3,1.81831,R,ugm-3,68.71860,R,ugm-3
03-01-2016,02:00,0.28626,R,ugm-3,0.78986,R,ugm-3,1.22878,R,ugm-3,79.16277,R,ugm-3
03-01-2016,03:00,0.34987,R,ugm-3,2.55988,R,ugm-3,3.09634,R,ugm-3,70.44821,R,ugm-3
03-01-2016,04:00,0.34987,R,ugm-3,5.80396,R,ugm-3,6.34042,R,ugm-3,62.91444,R,ugm-3
03-01-2016,05:00,0.38167,R,ugm-3,5.11642,R,ugm-3,5.70164,R,ugm-3,58.12476,R,ugm-3
03-01-2016,06:00,0.28626,R,ugm-3,5.80348,R,ugm-3,6.24240,R,ugm-3,58.22455,R,ugm-3
03-01-2016,07:00,0.25445,R,ugm-3,6.34376,R,ugm-3,6.73391,R,ugm-3,62.41552,R,ugm-3
03-01-2016,08:00,0.54102,R,ugm-3,5.95266,R,ugm-3,6.78220,R,ugm-3,64.86025,R,ugm-3
03-01-2016,09:00,0.54071,R,ugm-3,3.93879,R,ugm-3,4.76786,R,ugm-3,67.15531,R,ugm-3
03-01-2016,10:00,0.50890,R,ugm-3,4.28209,R,ugm-3,5.06239,R,ugm-3,71.59574,R,ugm-3
03-01-2016,11:00,0.47709,R,ugm-3,5.70738,R,ugm-3,6.43891,R,ugm-3,67.75402,R,ugm-3
03-01-2016,12:00,0.31806,R,ugm-3,4.96820,R,ugm-3,5.45588,R,ugm-3,79.27918,R,ugm-3
03-01-2016,13:00,0.57282,R,ugm-3,5.70786,R,ugm-3,6.58617,R,ugm-3,81.02542,R,ugm-3
03-01-2016,14:00,0.63644,R,ugm-3,4.97154,R,ugm-3,5.94740,R,ugm-3,75.53725,R,ugm-3
03-01-2016,15:00,0.47709,R,ugm-3,4.13435,R,ugm-3,4.86588,R,ugm-3,74.68907,R,ugm-3
03-01-2016,16:00,0.34987,R,ugm-3,4.77121,R,ugm-3,5.30767,R,ugm-3,74.04047,R,ugm-3
03-01-2016,17:00,0.41348,R,ugm-3,8.45899,R,ugm-3,9.09298,R,ugm-3,68.90154,R,ugm-3
03-01-2016,18:00,0.54071,R,ugm-3,5.85560,R,ugm-3,6.68467,R,ugm-3,71.69552,R,ugm-3
03-01-2016,19:00,0.54102,R,ugm-3,10.77024,R,ugm-3,11.59979,R,ugm-3,67.85380,R,ugm-3
03-01-2016,20:00,0.82790,R,ugm-3,30.72814,R,ugm-3,31.99756,R,ugm-3,45.40218,R,ugm-3
03-01-2016,21:00,0.73248,R,ugm-3,29.10490,R,ugm-3,30.22802,R,ugm-3,39.16561,R,ugm-3
03-01-2016,22:00,0.95481,R,ugm-3,19.13074,R,ugm-3,20.59476,R,ugm-3,42.00949,R,ugm-3
03-01-2016,23:00,0.41348,R,ugm-3,7.96748,R,ugm-3,8.60147,R,ugm-3,57.17681,R,ugm-3
03-01-2016,24:00,0.28626,R,ugm-3,7.81878,R,ugm-3,8.25770,R,ugm-3,57.82541,R,ugm-3
04-01-2016,01:00,0.47803,R,ugm-3,5.26320,R,ugm-3,5.99617,R,ugm-3,61.00190,R,ugm-3
04-01-2016,02:00,0.25476,R,ugm-3,2.80468,R,ugm-3,3.19531,R,ugm-3,66.25724,R,ugm-3
04-01-2016,03:00,0.25476,R,ugm-3,2.21468,R,ugm-3,2.60530,R,ugm-3,72.84305,R,ugm-3
04-01-2016,04:00,0.22296,R,ugm-3,3.39373,R,ugm-3,3.73559,R,ugm-3,71.04692,R,ugm-3
04-01-2016,05:00,0.31869,R,ugm-3,5.21300,R,ugm-3,5.70164,R,ugm-3,67.45466,R,ugm-3
04-01-2016,06:00,0.47834,R,ugm-3,8.75256,R,ugm-3,9.48600,R,ugm-3,61.71702,R,ugm-3
04-01-2016,07:00,0.44653,R,ugm-3,11.45588,R,ugm-3,12.14055,R,ugm-3,65.55875,R,ugm-3
04-01-2016,08:00,0.44622,R,ugm-3,16.32223,R,ugm-3,17.00643,R,ugm-3,57.77552,R,ugm-3
04-01-2016,09:00,4.20652,R,ugm-3,60.15004,R,ugm-3,66.59994,R,ugm-3,27.54066,R,ugm-3
04-01-2016,10:00,2.77244,R,ugm-3,50.89641,R,ugm-3,55.14742,R,ugm-3,25.09593,R,ugm-3
04-01-2016,11:00,5.25831,R,ugm-3,57.16128,R,ugm-3,65.22390,R,ugm-3,21.90281,R,ugm-3
04-01-2016,12:00,7.61664,R,ugm-3,51.18567,R,ugm-3,62.86435,R,ugm-3,24.54711,R,ugm-3
04-01-2016,13:00,2.83636,R,ugm-3,41.06663,R,ugm-3,45.41566,R,ugm-3,33.82712,R,ugm-3
04-01-2016,14:00,0.92425,R,ugm-3,17.80155,R,ugm-3,19.21871,R,ugm-3,55.23100,R,ugm-3
04-01-2016,15:00,2.26260,R,ugm-3,36.93277,R,ugm-3,40.40204,R,ugm-3,43.80562,R,ugm-3
04-01-2016,16:00,1.52981,R,ugm-3,22.81947,R,ugm-3,25.16515,R,ugm-3,44.90325,R,ugm-3
04-01-2016,17:00,0.73310,R,ugm-3,19.56870,R,ugm-3,20.69277,R,ugm-3,53.38498,R,ugm-3
04-01-2016,18:00,0.95606,R,ugm-3,35.88902,R,ugm-3,37.35495,R,ugm-3,37.96819,R,ugm-3
04-01-2016,19:00,1.11509,R,ugm-3,31.07430,R,ugm-3,32.78408,R,ugm-3,40.56260,R,ugm-3
04-01-2016,20:00,0.57376,R,ugm-3,16.42120,R,ugm-3,17.30095,R,ugm-3,50.04218,R,ugm-3
04-01-2016,21:00,0.41410,R,ugm-3,9.39181,R,ugm-3,10.02676,R,ugm-3,55.18111,R,ugm-3
04-01-2016,22:00,0.50983,R,ugm-3,7.81973,R,ugm-3,8.60147,R,ugm-3,62.66498,R,ugm-3
04-01-2016,23:00,0.41442,R,ugm-3,8.11330,R,ugm-3,8.74873,R,ugm-3,61.76692,R,ugm-3
04-01-2016,24:00,0.47834,R,ugm-3,15.58448,R,ugm-3,16.31793,R,ugm-3,53.23530,R,ugm-3
05-01-2016,01:00,0.54195,R,ugm-3,18.33801,R,ugm-3,19.16899,R,ugm-3,45.03630,R,ugm-3
05-01-2016,02:00,0.35080,R,ugm-3,11.06190,R,ugm-3,11.59979,R,ugm-3,50.89035,R,ugm-3
05-01-2016,03:00,0.38292,R,ugm-3,5.85177,R,ugm-3,6.43891,R,ugm-3,58.57380,R,ugm-3
05-01-2016,04:00,0.38261,R,ugm-3,7.47453,R,ugm-3,8.06119,R,ugm-3,58.42412,R,ugm-3
05-01-2016,05:00,0.25445,R,ugm-3,3.44346,R,ugm-3,3.83361,R,ugm-3,67.55445,R,ugm-3
05-01-2016,06:00,0.47803,R,ugm-3,18.48527,R,ugm-3,19.21823,R,ugm-3,56.87745,R,ugm-3
05-01-2016,07:00,3.41012,R,ugm-3,41.71067,R,ugm-3,46.93944,R,ugm-3,34.72518,R,ugm-3
05-01-2016,08:00,17.40015,R,ugm-3,71.13113,R,ugm-3,97.81099,R,ugm-3,6.68560,R,ugm-3
05-01-2016,09:00,43.46903,R,ugm-3,74.90402,R,ugm-3,141.55560,R,ugm-3,0.84817,R,ugm-3
05-01-2016,10:00,17.20900,R,ugm-3,58.10414,R,ugm-3,84.49090,R,ugm-3,6.13678,R,ugm-3
05-01-2016,11:00,14.18149,R,ugm-3,51.19619,R,ugm-3,72.94084,R,ugm-3,11.67485,R,ugm-3
05-01-2016,12:00,7.77598,R,ugm-3,44.89594,R,ugm-3,56.81894,R,ugm-3,21.30410,R,ugm-3
05-01-2016,13:00,5.99141,R,ugm-3,31.75658,R,ugm-3,40.94328,R,ugm-3,35.27400,R,ugm-3
05-01-2016,14:00,5.67272,R,ugm-3,34.55505,R,ugm-3,43.25310,R,ugm-3,36.57120,R,ugm-3
05-01-2016,15:00,4.17471,R,ugm-3,27.90672,R,ugm-3,34.30786,R,ugm-3,43.60605,R,ugm-3
05-01-2016,16:00,17.75126,R,ugm-3,65.03887,R,ugm-3,92.25709,R,ugm-3,9.47958,R,ugm-3
05-01-2016,17:00,13.12970,R,ugm-3,66.17728,R,ugm-3,86.30921,R,ugm-3,5.13893,R,ugm-3
05-01-2016,18:00,34.64095,R,ugm-3,73.74361,R,ugm-3,126.85899,R,ugm-3,0.69850,R,ugm-3
05-01-2016,19:00,20.39585,R,ugm-3,74.20548,R,ugm-3,105.47868,R,ugm-3,0.94796,R,ugm-3
05-01-2016,20:00,5.83175,R,ugm-3,61.73741,R,ugm-3,70.67931,R,ugm-3,5.33850,R,ugm-3
05-01-2016,21:00,3.28227,R,ugm-3,52.62196,R,ugm-3,57.65470,R,ugm-3,12.32345,R,ugm-3
05-01-2016,22:00,1.17901,R,ugm-3,25.22492,R,ugm-3,27.03271,R,ugm-3,24.59700,R,ugm-3
05-01-2016,23:00,0.73279,R,ugm-3,15.44009,R,ugm-3,16.56368,R,ugm-3,40.41293,R,ugm-3
05-01-2016,24:00,0.63737,R,ugm-3,10.88468,R,ugm-3,11.86196,R,ugm-3,40.76217,R,ugm-3
06-01-2016,01:00,0.50983,R,ugm-3,8.26248,R,ugm-3,9.04421,R,ugm-3,45.76805,R,ugm-3
06-01-2016,02:00,0.50983,R,ugm-3,8.21323,R,ugm-3,8.99497,R,ugm-3,49.62641,R,ugm-3
06-01-2016,03:00,0.31869,R,ugm-3,5.16423,R,ugm-3,5.65287,R,ugm-3,54.48261,R,ugm-3
06-01-2016,04:00,0.51015,R,ugm-3,9.39229,R,ugm-3,10.17450,R,ugm-3,55.08132,R,ugm-3
06-01-2016,05:00,0.76491,R,ugm-3,5.65909,R,ugm-3,6.83193,R,ugm-3,50.94024,R,ugm-3
06-01-2016,06:00,2.64490,R,ugm-3,18.84912,R,ugm-3,22.90458,R,ugm-3,35.22411,R,ugm-3
06-01-2016,07:00,13.89461,R,ugm-3,33.10585,R,ugm-3,54.41063,R,ugm-3,19.40818,R,ugm-3
06-01-2016,08:00,70.39761,R,ugm-3,54.99489,R,ugm-3,162.93639,R,ugm-3,0.54882,R,ugm-3
06-01-2016,09:00,128.84422,R,ugm-3,64.02476,R,ugm-3,261.58314,R,ugm-3,1.54667,R,ugm-3
06-01-2016,10:00,118.83776,R,ugm-3,58.57653,R,ugm-3,240.79188,R,ugm-3,1.89592,R,ugm-3
06-01-2016,11:00,134.80413,R,ugm-3,61.71829,R,ugm-3,268.41507,R,ugm-3,2.14538,R,ugm-3
06-01-2016,12:00,32.72915,R,ugm-3,40.89355,R,ugm-3,91.07755,R,ugm-3,7.78323,R,ugm-3
06-01-2016,13:00,7.77567,R,ugm-3,25.08818,R,ugm-3,37.01070,R,ugm-3,25.09593,R,ugm-3
06-01-2016,14:00,12.65199,R,ugm-3,38.30403,R,ugm-3,57.70347,R,ugm-3,22.85077,R,ugm-3
06-01-2016,15:00,22.91353,R,ugm-3,49.45629,R,ugm-3,84.58988,R,ugm-3,8.38194,R,ugm-3
06-01-2016,16:00,41.04646,R,ugm-3,58.61430,R,ugm-3,121.55133,R,ugm-3,2.69420,R,ugm-3
06-01-2016,17:00,124.66982,R,ugm-3,73.91478,R,ugm-3,265.07250,R,ugm-3,1.54667,R,ugm-3
06-01-2016,18:00,63.38654,R,ugm-3,60.14143,R,ugm-3,157.33277,R,ugm-3,1.44688,R,ugm-3
06-01-2016,19:00,8.73235,R,ugm-3,45.88661,R,ugm-3,59.27603,R,ugm-3,4.29076,R,ugm-3
06-01-2016,20:00,5.76814,R,ugm-3,41.97842,R,ugm-3,50.82278,R,ugm-3,3.49248,R,ugm-3
06-01-2016,21:00,1.56162,R,ugm-3,26.89979,R,ugm-3,29.29424,R,ugm-3,11.87442,R,ugm-3
06-01-2016,22:00,0.92425,R,ugm-3,17.16230,R,ugm-3,18.57946,R,ugm-3,24.84647,R,ugm-3
06-01-2016,23:00,0.66918,R,ugm-3,11.70354,R,ugm-3,12.72960,R,ugm-3,33.52776,R,ugm-3
06-01-2016,24:00,0.31869,R,ugm-3,3.09968,R,ugm-3,3.58833,R,ugm-3,63.86240,R,ugm-3
07-01-2016,01:00,0.38292,R,ugm-3,1.42816,R,ugm-3,2.01530,R,ugm-3,72.97610,R,ugm-3
07-01-2016,02:00,0.44653,R,ugm-3,1.28138,R,ugm-3,1.96605,R,ugm-3,75.77008,R,ugm-3
07-01-2016,03:00,0.47803,R,ugm-3,1.97035,R,ugm-3,2.70332,R,ugm-3,72.89294,R,ugm-3
07-01-2016,04:00,0.38261,R,ugm-3,2.36242,R,ugm-3,2.94908,R,ugm-3,70.54800,R,ugm-3
07-01-2016,05:00,0.31869,R,ugm-3,3.59072,R,ugm-3,4.07936,R,ugm-3,65.05982,R,ugm-3
07-01-2016,06:00,0.31900,R,ugm-3,7.22734,R,ugm-3,7.71646,R,ugm-3,56.77767,R,ugm-3
07-01-2016,07:00,0.35080,R,ugm-3,2.31269,R,ugm-3,2.85058,R,ugm-3,76.08606,R,ugm-3
07-01-2016,08:00,0.28688,R,ugm-3,6.49007,R,ugm-3,6.92994,R,ugm-3,79.12951,R,ugm-3
07-01-2016,09:00,0.54195,R,ugm-3,6.04972,R,ugm-3,6.88070,R,ugm-3,76.73467,R,ugm-3
07-01-2016,10:00,0.57376,R,ugm-3,3.74037,R,ugm-3,4.62012,R,ugm-3,78.38112,R,ugm-3
07-01-2016,11:00,,,,,,,,,,78.78026,R,ugm-3
07-01-2016,12:00,1.11571,R,ugm-3,4.97393,R,ugm-3,6.68467,R,ugm-3,75.18800,R,ugm-3
07-01-2016,13:00,1.14752,R,ugm-3,5.66196,R,ugm-3,7.42146,R,ugm-3,68.55230,R,ugm-3
07-01-2016,14:00,0.95637,R,ugm-3,4.87448,R,ugm-3,6.34089,R,ugm-3,70.59789,R,ugm-3
07-01-2016,15:00,0.86033,R,ugm-3,5.51278,R,ugm-3,6.83193,R,ugm-3,72.59359,R,ugm-3
07-01-2016,16:00,0.76460,R,ugm-3,6.93807,R,ugm-3,8.11043,R,ugm-3,70.54800,R,ugm-3
07-01-2016,17:00,0.66918,R,ugm-3,8.75495,R,ugm-3,9.78100,R,ugm-3,69.84950,R,ugm-3
07-01-2016,18:00,0.57376,R,ugm-3,9.83551,R,ugm-3,10.71526,R,ugm-3,67.15531,R,ugm-3
07-01-2016,19:00,0.57376,R,ugm-3,7.77097,R,ugm-3,8.65072,R,ugm-3,67.65423,R,ugm-3
07-01-2016,20:00,1.08359,R,ugm-3,13.47691,R,ugm-3,15.13839,R,ugm-3,61.71702,R,ugm-3
07-01-2016,21:00,0.54195,R,ugm-3,8.95002,R,ugm-3,9.78100,R,ugm-3,60.22025,R,ugm-3
07-01-2016,22:00,0.38261,R,ugm-3,5.36074,R,ugm-3,5.94740,R,ugm-3,69.25079,R,ugm-3
07-01-2016,23:00,0.66918,R,ugm-3,16.07839,R,ugm-3,17.10444,R,ugm-3,52.88605,R,ugm-3
07-01-2016,24:00,0.51015,R,ugm-3,8.75351,R,ugm-3,9.53573,R,ugm-3,54.38283,R,ugm-3
08-01-2016,01:00,0.51015,R,ugm-3,14.35618,R,ugm-3,15.13839,R,ugm-3,52.75300,R,ugm-3
08-01-2016,02:00,0.60556,R,ugm-3,13.52185,R,ugm-3,14.45037,R,ugm-3,45.36891,R,ugm-3
08-01-2016,03:00,0.54195,R,ugm-3,10.81806,R,ugm-3,11.64904,R,ugm-3,44.10497,R,ugm-3
08-01-2016,04:00,0.41473,R,ugm-3,10.91464,R,ugm-3,11.55054,R,ugm-3,49.84261,R,ugm-3
08-01-2016,05:00,0.31869,R,ugm-3,6.93281,R,ugm-3,7.42146,R,ugm-3,51.83831,R,ugm-3
08-01-2016,06:00,0.57376,R,ugm-3,19.76378,R,ugm-3,20.64353,R,ugm-3,45.95099,R,ugm-3
08-01-2016,07:00,3.56977,R,ugm-3,37.63226,R,ugm-3,43.10584,R,ugm-3,30.88346,R,ugm-3
08-01-2016,08:00,4.97143,R,ugm-3,38.18593,R,ugm-3,45.80868,R,ugm-3,22.75098,R,ugm-3
08-01-2016,09:00,22.30765,R,ugm-3,56.72523,R,ugm-3,90.92981,R,ugm-3,17.21291,R,ugm-3
08-01-2016,10:00,7.52091,R,ugm-3,45.28704,R,ugm-3,56.81894,R,ugm-3,12.97205,R,ugm-3
08-01-2016,11:00,2.93178,R,ugm-3,26.86298,R,ugm-3,31.35831,R,ugm-3,35.87271,R,ugm-3
08-01-2016,12:00,4.65243,R,ugm-3,25.01120,R,ugm-3,32.14482,R,ugm-3,41.90970,R,ugm-3
08-01-2016,13:00,2.32622,R,ugm-3,14.22613,R,ugm-3,17.79294,R,ugm-3,55.58025,R,ugm-3
08-01-2016,14:00,1.81638,R,ugm-3,15.84315,R,ugm-3,18.62823,R,ugm-3,58.12476,R,ugm-3
08-01-2016,15:00,1.30655,R,ugm-3,18.68943,R,ugm-3,20.69277,R,ugm-3,53.13551,R,ugm-3
08-01-2016,16:00,3.15473,R,ugm-3,25.14459,R,ugm-3,29.98178,R,ugm-3,49.69293,R,ugm-3
08-01-2016,17:00,62.36687,R,ugm-3,81.80814,R,ugm-3,177.43601,R,ugm-3,13.22151,R,ugm-3
08-01-2016,18:00,37.47731,R,ugm-3,75.09623,R,ugm-3,132.56063,R,ugm-3,2.44473,R,ugm-3
08-01-2016,19:00,24.92105,R,ugm-3,76.99868,R,ugm-3,115.21043,R,ugm-3,5.43828,R,ugm-3
08-01-2016,20:00,75.71922,R,ugm-3,84.33790,R,ugm-3,200.43908,R,ugm-3,1.24731,R,ugm-3
08-01-2016,21:00,36.83994,R,ugm-3,67.96403,R,ugm-3,124.45116,R,ugm-3,1.14753,R,ugm-3
08-01-2016,22:00,37.95534,R,ugm-3,59.81487,R,ugm-3,118.01225,R,ugm-3,0.89807,R,ugm-3
08-01-2016,23:00,13.32116,R,ugm-3,49.32003,R,ugm-3,69.74553,R,ugm-3,5.38839,R,ugm-3
08-01-2016,24:00,1.18992,R,ugm-3,30.54964,R,ugm-3,32.37416,R,ugm-3,15.91571,R,ugm-3
09-01-2016,01:00,0.92394,R,ugm-3,24.09272,R,ugm-3,25.50940,R,ugm-3,22.55141,R,ugm-3
09-01-2016,02:00,0.57376,R,ugm-3,8.45899,R,ugm-3,9.33874,R,ugm-3,47.49766,R,ugm-3
09-01-2016,03:00,1.72065,R,ugm-3,14.07361,R,ugm-3,16.71190,R,ugm-3,43.30669,R,ugm-3
09-01-2016,04:00,1.33835,R,ugm-3,15.93734,R,ugm-3,17.98945,R,ugm-3,44.00519,R,ugm-3
09-01-2016,05:00,0.57376,R,ugm-3,14.06213,R,ugm-3,14.94188,R,ugm-3,38.86626,R,ugm-3
09-01-2016,06:00,1.30686,R,ugm-3,13.47834,R,ugm-3,15.48217,R,ugm-3,45.65164,R,ugm-3
09-01-2016,07:00,0.41442,R,ugm-3,10.03058,R,ugm-3,10.66601,R,ugm-3,55.23100,R,ugm-3
09-01-2016,08:00,0.57376,R,ugm-3,10.22853,R,ugm-3,11.10828,R,ugm-3,63.46326,R,ugm-3
09-01-2016,09:00,0.44653,R,ugm-3,8.26104,R,ugm-3,8.94572,R,ugm-3,65.30928,R,ugm-3
09-01-2016,10:00,0.57376,R,ugm-3,7.82021,R,ugm-3,8.69996,R,ugm-3,64.86025,R,ugm-3
09-01-2016,11:00,0.89213,R,ugm-3,12.19793,R,ugm-3,13.56584,R,ugm-3,61.91659,R,ugm-3
09-01-2016,12:00,1.33804,R,ugm-3,15.88857,R,ugm-3,17.94021,R,ugm-3,54.73207,R,ugm-3
09-01-2016,13:00,1.24325,R,ugm-3,20.40829,R,ugm-3,22.31457,R,ugm-3,52.73637,R,ugm-3
09-01-2016,14:00,0.89213,R,ugm-3,16.76880,R,ugm-3,18.13672,R,ugm-3,59.02283,R,ugm-3
09-01-2016,15:00,0.57376,R,ugm-3,19.02603,R,ugm-3,19.90578,R,ugm-3,59.22240,R,ugm-3
09-01-2016,16:00,0.70098,R,ugm-3,14.94858,R,ugm-3,16.02340,R,ugm-3,62.16606,R,ugm-3
09-01-2016,17:00,0.54195,R,ugm-3,12.34136,R,ugm-3,13.17234,R,ugm-3,66.60649,R,ugm-3
09-01-2016,18:00,0.41473,R,ugm-3,7.37603,R,ugm-3,8.01194,R,ugm-3,71.09681,R,ugm-3
09-01-2016,19:00,0.44591,R,ugm-3,14.40543,R,ugm-3,15.08915,R,ugm-3,69.25079,R,ugm-3
09-01-2016,20:00,0.41442,R,ugm-3,13.76570,R,ugm-3,14.40113,R,ugm-3,67.45466,R,ugm-3
09-01-2016,21:00,0.47834,R,ugm-3,6.44273,R,ugm-3,7.17618,R,ugm-3,75.23789,R,ugm-3
09-01-2016,22:00,0.35049,R,ugm-3,6.73726,R,ugm-3,7.27467,R,ugm-3,72.54370,R,ugm-3
09-01-2016,23:00,0.51015,R,ugm-3,12.14438,R,ugm-3,12.92659,R,ugm-3,68.40262,R,ugm-3
09-01-2016,24:00,0.44653,R,ugm-3,10.66936,R,ugm-3,11.35403,R,ugm-3,63.86240,R,ugm-3
10-01-2016,01:00,0.31869,R,ugm-3,10.66840,R,ugm-3,11.15705,R,ugm-3,70.51473,R,ugm-3
10-01-2016,02:00,0.41473,R,ugm-3,5.21348,R,ugm-3,5.84938,R,ugm-3,72.90957,R,ugm-3
10-01-2016,03:00,0.28657,R,ugm-3,1.13316,R,ugm-3,1.57255,R,ugm-3,80.67617,R,ugm-3
10-01-2016,04:00,0.31837,R,ugm-3,1.91967,R,ugm-3,2.40784,R,ugm-3,78.48090,R,ugm-3
10-01-2016,05:00,0.38261,R,ugm-3,1.28090,R,ugm-3,1.86756,R,ugm-3,76.13596,R,ugm-3
10-01-2016,06:00,0.38261,R,ugm-3,1.52665,R,ugm-3,2.11331,R,ugm-3,74.98843,R,ugm-3
10-01-2016,07:00,0.89213,R,ugm-3,9.54338,R,ugm-3,10.91129,R,ugm-3,63.91229,R,ugm-3
10-01-2016,08:00,0.41442,R,ugm-3,10.66936,R,ugm-3,11.30479,R,ugm-3,57.22670,R,ugm-3
10-01-2016,09:00,0.54195,R,ugm-3,10.52305,R,ugm-3,11.35403,R,ugm-3,54.18326,R,ugm-3
10-01-2016,10:00,1.59343,R,ugm-3,20.06738,R,ugm-3,22.51060,R,ugm-3,53.48476,R,ugm-3
10-01-2016,11:00,2.61341,R,ugm-3,28.08937,R,ugm-3,32.09653,R,ugm-3,43.05723,R,ugm-3
10-01-2016,12:00,1.01936,R,ugm-3,25.61698,R,ugm-3,27.17997,R,ugm-3,42.40863,R,ugm-3
10-01-2016,13:00,1.43408,R,ugm-3,22.67173,R,ugm-3,24.87063,R,ugm-3,49.94239,R,ugm-3
10-01-2016,14:00,2.70914,R,ugm-3,25.53331,R,ugm-3,29.68726,R,ugm-3,48.59530,R,ugm-3
10-01-2016,15:00,2.45406,R,ugm-3,34.57465,R,ugm-3,38.33750,R,ugm-3,41.36088,R,ugm-3
10-01-2016,16:00,0.70129,R,ugm-3,16.52065,R,ugm-3,17.59596,R,ugm-3,56.67788,R,ugm-3
10-01-2016,17:00,0.63737,R,ugm-3,20.05973,R,ugm-3,21.03702,R,ugm-3,58.32433,R,ugm-3
10-01-2016,18:00,0.73279,R,ugm-3,19.91343,R,ugm-3,21.03702,R,ugm-3,58.62369,R,ugm-3
10-01-2016,19:00,0.54195,R,ugm-3,16.32319,R,ugm-3,17.15417,R,ugm-3,54.03358,R,ugm-3
10-01-2016,20:00,0.60556,R,ugm-3,22.12332,R,ugm-3,23.05184,R,ugm-3,53.83401,R,ugm-3
10-01-2016,21:00,0.98817,R,ugm-3,32.59569,R,ugm-3,34.11087,R,ugm-3,39.36518,R,ugm-3
10-01-2016,22:00,0.47803,R,ugm-3,11.94834,R,ugm-3,12.68131,R,ugm-3,55.77982,R,ugm-3
10-01-2016,23:00,0.98817,R,ugm-3,22.02865,R,ugm-3,23.54383,R,ugm-3,50.64089,R,ugm-3
10-01-2016,24:00,0.57376,R,ugm-3,15.53667,R,ugm-3,16.41642,R,ugm-3,46.20046,R,ugm-3
11-01-2016,01:00,0.44653,R,ugm-3,4.67272,R,ugm-3,5.35739,R,ugm-3,59.47186,R,ugm-3
11-01-2016,02:00,0.47834,R,ugm-3,6.04924,R,ugm-3,6.78268,R,ugm-3,58.80663,R,ugm-3
11-01-2016,03:00,0.44653,R,ugm-3,6.29499,R,ugm-3,6.97967,R,ugm-3,54.43272,R,ugm-3
11-01-2016,04:00,0.44653,R,ugm-3,9.14558,R,ugm-3,9.83025,R,ugm-3,48.54540,R,ugm-3
11-01-2016,05:00,0.79671,R,ugm-3,9.59167,R,ugm-3,10.81328,R,ugm-3,47.94669,R,ugm-3
11-01-2016,06:00,1.17901,R,ugm-3,11.36455,R,ugm-3,13.17234,R,ugm-3,48.84476,R,ugm-3
11-01-2016,07:00,1.21113,R,ugm-3,17.60695,R,ugm-3,19.46399,R,ugm-3,44.95314,R,ugm-3
11-01-2016,08:00,1.40228,R,ugm-3,23.31003,R,ugm-3,25.46016,R,ugm-3,40.06368,R,ugm-3
11-01-2016,09:00,2.19868,R,ugm-3,30.39584,R,ugm-3,33.76710,R,ugm-3,29.68604,R,ugm-3
11-01-2016,10:00,12.30150,R,ugm-3,48.81943,R,ugm-3,67.68146,R,ugm-3,17.01334,R,ugm-3
11-01-2016,11:00,6.43763,R,ugm-3,33.03796,R,ugm-3,42.90885,R,ugm-3,22.00259,R,ugm-3
11-01-2016,12:00,1.21113,R,ugm-3,18.14771,R,ugm-3,20.00475,R,ugm-3,47.64734,R,ugm-3
11-01-2016,13:00,1.24293,R,ugm-3,16.62393,R,ugm-3,18.52973,R,ugm-3,53.28519,R,ugm-3
11-01-2016,14:00,1.75277,R,ugm-3,14.61389,R,ugm-3,17.30143,R,ugm-3,53.78412,R,ugm-3
11-01-2016,15:00,1.17932,R,ugm-3,12.39683,R,ugm-3,14.20509,R,ugm-3,59.52175,R,ugm-3
11-01-2016,16:00,6.88323,R,ugm-3,33.38699,R,ugm-3,43.94112,R,ugm-3,52.13766,R,ugm-3
11-01-2016,17:00,19.94963,R,ugm-3,68.79502,R,ugm-3,99.38402,R,ugm-3,7.18452,R,ugm-3
11-01-2016,18:00,52.04141,R,ugm-3,77.93055,R,ugm-3,157.72627,R,ugm-3,1.19742,R,ugm-3
11-01-2016,19:00,1.49770,R,ugm-3,30.09414,R,ugm-3,32.39058,R,ugm-3,23.44948,R,ugm-3
11-01-2016,20:00,0.51015,R,ugm-3,10.47381,R,ugm-3,11.25602,R,ugm-3,47.99659,R,ugm-3
11-01-2016,21:00,0.44653,R,ugm-3,8.16255,R,ugm-3,8.84723,R,ugm-3,50.34153,R,ugm-3
11-01-2016,22:00,0.38230,R,ugm-3,6.39349,R,ugm-3,6.97967,R,ugm-3,50.14196,R,ugm-3
11-01-2016,23:00,0.41442,R,ugm-3,4.77121,R,ugm-3,5.40664,R,ugm-3,50.29164,R,ugm-3
11-01-2016,24:00,0.42533,R,ugm-3,3.14925,R,ugm-3,3.80141,R,ugm-3,52.08777,R,ugm-3
12-01-2016,01:00,0.51015,R,ugm-3,1.96988,R,ugm-3,2.75209,R,ugm-3,53.95042,R,ugm-3
12-01-2016,02:00,0.41473,R,ugm-3,2.16543,R,ugm-3,2.80133,R,ugm-3,53.21867,R,ugm-3
12-01-2016,03:00,0.44653,R,ugm-3,1.47788,R,ugm-3,2.16256,R,ugm-3,55.77982,R,ugm-3
12-01-2016,04:00,0.44591,R,ugm-3,1.28281,R,ugm-3,1.96653,R,ugm-3,57.42627,R,ugm-3
12-01-2016,05:00,0.38292,R,ugm-3,0.88788,R,ugm-3,1.47502,R,ugm-3,61.01853,R,ugm-3
12-01-2016,06:00,0.41473,R,ugm-3,1.82166,R,ugm-3,2.45756,R,ugm-3,64.61079,R,ugm-3
12-01-2016,07:00,0.41473,R,ugm-3,3.29619,R,ugm-3,3.93210,R,ugm-3,65.70842,R,ugm-3
12-01-2016,08:00,0.44653,R,ugm-3,6.88452,R,ugm-3,7.56920,R,ugm-3,63.66283,R,ugm-3
12-01-2016,09:00,0.70098,R,ugm-3,8.16590,R,ugm-3,9.24072,R,ugm-3,62.71487,R,ugm-3
12-01-2016,10:00,0.95606,R,ugm-3,7.57828,R,ugm-3,9.04421,R,ugm-3,63.11401,R,ugm-3
12-01-2016,11:00,0.82821,R,ugm-3,5.61128,R,ugm-3,6.88118,R,ugm-3,63.76262,R,ugm-3
12-01-2016,12:00,1.08359,R,ugm-3,5.36743,R,ugm-3,7.02892,R,ugm-3,63.56305,R,ugm-3
12-01-2016,13:00,1.17932,R,ugm-3,5.90867,R,ugm-3,7.71694,R,ugm-3,61.11831,R,ugm-3
12-01-2016,14:00,0.95637,R,ugm-3,4.67798,R,ugm-3,6.14438,R,ugm-3,65.45896,R,ugm-3
12-01-2016,15:00,0.95637,R,ugm-3,5.51278,R,ugm-3,6.97919,R,ugm-3,68.25294,R,ugm-3
12-01-2016,16:00,0.73279,R,ugm-3,7.33061,R,ugm-3,8.45421,R,ugm-3,66.35703,R,ugm-3
12-01-2016,17:00,0.76491,R,ugm-3,9.54194,R,ugm-3,10.71478,R,ugm-3,60.41982,R,ugm-3
12-01-2016,18:00,0.54195,R,ugm-3,6.59048,R,ugm-3,7.42146,R,ugm-3,66.80606,R,ugm-3
12-01-2016,19:00,0.73310,R,ugm-3,5.46210,R,ugm-3,6.58617,R,ugm-3,71.09681,R,ugm-3
12-01-2016,20:00,0.47834,R,ugm-3,3.83743,R,ugm-3,4.57088,R,ugm-3,72.34413,R,ugm-3
12-01-2016,21:00,0.47834,R,ugm-3,4.13243,R,ugm-3,4.86588,R,ugm-3,71.79531,R,ugm-3